FENGYUN 1C DEB

Satellite information

Favourite Embed

Satellite Type and Status

DEBRISIN ORBIT

Key statistics

Satellite FENGYUN 1C DEB at a glance.

Uptime

9555

Days in orbit

Revolutions

≈ 14.2

Per day

Orbit

SSO

Sun Synchronous Orbit

Inclination

98.9

Latest

Satellite identification and parameters

Extended collection of information and parameters for FENGYUN 1C DEB.

Object identification

Identified? True

Debris? True

Object name: FENGYUN 1C DEB

International designator: 1999-025YC

Object number (NORAD): 30267

Object ID (CCSDS): 30267

Country: PEOPLES REPUBLIC OF CHINA (PRC)

Current information (Y/N): Y

RCS size: SMALL

Orbital parameters

Period: 101.238 minutes

Inclination: 98.8581 deg

SMA: 7195.403 km

Apoapsis: 858.665 km

Periapsis: 775.87 km

RAAN: 258.0313 deg

Eccentricy: 0.0057533

Argument of periapsis: 344.4218 deg

Mean anomaly: 15.5187 deg

Mean motion: 14.22394656 rev/day

Mean motion (dot): 0.00001828 rev/day2

B* drag term: 0.00082723 1/REarth

Two-line elements (TLE)

Creation date: July 6, 2025, 10:56 p.m.

Reference frame: TEME

Reference center: EARTH

Epoch: July 6, 2025, 5:12 p.m. UTC

TLE line 0: 0 FENGYUN 1C DEB

TLE line 1: 1 30267U 99025YC 25187.71727101 .00001828 00000-0 82723-3 0 9996

TLE line 2: 2 30267 98.8581 258.0313 0057533 344.4218 15.5187 14.22394656950430

Live tracking on map

Real-time ground track for satellite FENGYUN 1C DEB.

In-orbit conjunctions

A list of the most updated potential collisions computed for object FENGYUN 1C DEB.

Target Orbit TCA Probability of collision Miss distance Type
THOR BURNER 2 R/B SSO 2025-02-03 23:20:25 0.0001525299 197.0 (m) ROCKET BODY
COSMOS 2360 LEO 2024-10-28 03:08:51 0.0003450304 508.0 (m) PAYLOAD

Associated space launch

Chinese polar orbiting meteorological satellite

FENGYUN 1C DEB was lifted into orbit during the mission ‘Long March 4B | Feng Yun 1C’, on board a Long March 4B space rocket.

The launch took place on May 10, 1999, 1:33 a.m. from Launch Complex 7.

For more information about the launch, click the button.

Launch to space Long March 4B | Feng Yun 1C
Long March 4B | Feng Yun 1C

Agency: N/A

Status: Launch Successful

Launch date: May 10, 1999, 1:33 a.m. UTC

Rocket: Long March 4B

Launch pad: Launch Complex 7

Location: Taiyuan Satellite Launch Center, People's Republic of China

...

Latest news about this satellite

There are no fresh news available about this satellite. Check back as we update our databases every day.


Newsletter sign-up

Weekly statistics, charts and insights to help you stay on top of the space industry.